This demonstration page uses our WeatherBlox Daily Observations layout. Learn more.

Hourly Observations for April 2, 2016

Temp ( °F °C ) Dew Point ( °F °C ) Humidity (%) Winds ( mph kmh ) Pressure ( in mb ) Visibility ( mi km ) Precip ( " mm )
12:15 am 00:15 Clear 33 0.5 14 -10 46 46 WSW 6 9 30.15 1021 10 16.0934 0 0
12:35 am 00:35 Clear 33 0.6 14 -10 45 45 SW 5 7 30.15 1021 10 16.0934 0 0
12:55 am 00:55 Clear 34 1.2 13 -10.5 42 42 WSW 9 15 30.15 1021 10 16.0934 0 0
1:15 am 01:15 Clear 35 1.5 13 -10.4 41 41 WSW 12 19 30.15 1021 10 16.0934 0 0
1:35 am 01:35 Clear 36 2.2 14 -9.8 41 41 WSW 15 24 30.15 1021 10 16.0934 0 0
1:55 am 01:55 Clear 35 1.9 14 -9.8 42 42 W 13 20 30.15 1021 10 16.0934 0 0
2:15 am 02:15 Clear 36 2 15 -9.6 42 42 W 14 22 30.15 1021 10 16.0934 0 0
2:35 am 02:35 Clear 35 1.5 16 -9.1 46 46 W 12 19 30.15 1021 10 16.0934 0 0
2:55 am 02:55 Clear 34 1 17 -8.5 50 50 W 13 20 30.12 1020 10 16.0934 0 0
3:15 am 03:15 Clear 33 0.4 17 -8.1 53 53 W 12 19 30.12 1020 10 16.0934 0 0
3:35 am 03:35 Clear 32 0.1 18 -7.6 57 57 W 12 19 30.12 1020 10 16.0934 0 0
3:55 am 03:55 Clear 32 0.1 19 -7 59 59 W 10 17 30.12 1020 10 16.0934 0 0
4:15 am 04:15 Clear 33 0.5 20 -6.4 60 60 W 14 22 30.12 1020 10 16.0934 0 0
4:35 am 04:35 Clear 33 0.5 20 -6.4 60 60 W 14 22 30.12 1020 10 16.0934 0 0
4:55 am 04:55 Clear 32 0 21 -6.1 64 64 W 12 19 30.12 1020 10 16.0934 0 0
5:15 am 05:15 Clear 32 0 22 -5.7 66 66 W 10 17 30.12 1020 10 16.0934 0 0
5:35 am 05:35 Clear 32 0.1 22 -5.5 66 66 W 10 17 30.12 1020 10 16.0934 0 0
5:55 am 05:55 Mostly Cloudy 32 0.1 23 -5.2 68 68 W 12 19 30.12 1020 10 16.0934 0 0
6:15 am 06:15 Cloudy 34 1.1 24 -4.5 67 67 W 9 15 30.12 1020 10 16.0934 0 0
6:35 am 06:35 Cloudy 36 2.3 25 -3.8 64 64 W 12 19 30.12 1020 10 16.0934 0 0
6:55 am 06:55 Cloudy 37 3 26 -3.6 62 62 W 10 17 30.15 1021 10 16.0934 0 0
7:15 am 07:15 Cloudy 37 3 26 -3.3 64 64 W 8 13 30.15 1021 10 16.0934 0 0
7:35 am 07:35 Mostly Cloudy 37 2.5 26 -3.2 66 66 W 7 11 30.15 1021 10 16.0934 0 0
7:55 am 07:55 Partly Cloudy 37 2.8 27 -3 66 66 W 6 9 30.15 1021 10 16.0934 0 0
8:15 am 08:15 Sunny 38 3.4 27 -2.7 65 65 WNW 6 9 30.12 1020 10 16.0934 0 0
8:35 am 08:35 Sunny 40 4.5 28 -2 63 63 WNW 5 7 30.15 1021 10 16.0934 0 0
8:55 am 08:55 Sunny 43 6.3 30 -1.1 59 59 WNW 8 13 30.15 1021 10 16.0934 0 0
9:15 am 09:15 Sunny 48 9.1 31 -0.5 51 51 NW 14 22 30.12 1020 10 16.0934 0 0
9:35 am 09:35 Sunny 49 9.6 31 -0.4 50 50 NW 12 19 30.15 1021 10 16.0934 0 0
9:55 am 09:55 Sunny 51 10.5 30 -1 45 45 NNW 16 26 30.12 1020 10 16.0934 0 0
10:15 am 10:15 Sunny 52 11.2 29 -1.8 41 41 N 16 26 30.12 1020 10 16.0934 0 0
10:35 am 10:35 Partly Cloudy 54 12 30 -1.3 40 40 NNW 10 17 30.12 1020 10 16.0934 0 0
10:55 am 10:55 Sunny 56 13.2 28 -2.3 34 34 N 10 17 30.12 1020 10 16.0934 0 0
11:15 am 11:15 Sunny 56 13.5 28 -2.4 33 33 N 9 15 30.12 1020 10 16.0934 0 0
11:35 am 11:35 Sunny 57 14 29 -1.9 34 34 N 9 15 30.09 1019 10 16.0934 0 0
11:55 am 11:55 Sunny 58 14.7 29 -1.5 33 33 N 15 24 30.09 1019 10 16.0934 0 0
12:15 pm 12:15 Sunny 59 15 30 -1.1 33 33 N 14 22 30.09 1019 10 16.0934 0 0
12:35 pm 12:35 Sunny 60 15.5 29 -1.6 31 31 N 8 13 30.09 1019 10 16.0934 0 0
12:55 pm 12:55 Sunny 60 15.6 29 -1.8 30 30 N 13 20 30.09 1019 10 16.0934 0 0
1:15 pm 13:15 Sunny 62 16.4 29 -1.6 29 29 NW 9 15 30.09 1019 10 16.0934 0 0
1:35 pm 13:35 Sunny 62 16.4 28 -2.2 28 28 NW 12 19 30.09 1019 10 16.0934 0 0
1:55 pm 13:55 Sunny 63 17.2 28 -2.3 26 26 NNW 9 15 30.06 1018 10 16.0934 0 0
2:15 pm 14:15 Sunny 63 17 27 -2.6 26 26 N 10 17 30.03 1017 10 16.0934 0 0
2:35 pm 14:35 Sunny 64 17.5 27 -2.7 25 25 WNW 10 17 30.03 1017 10 16.0934 0 0
2:55 pm 14:55 Sunny 64 17.6 27 -2.6 25 25 W 6 9 30.03 1017 10 16.0934 0 0
3:15 pm 15:15 Sunny 64 17.5 28 -2.3 26 26 WNW 6 9 30.03 1017 10 16.0934 0 0
3:35 pm 15:35 Sunny 64 17.8 28 -2.5 25 25 NNW 7 11 30.03 1017 10 16.0934 0 0
3:55 pm 15:55 Sunny 65 18.1 27 -2.6 24 24 W 12 19 30.03 1017 10 16.0934 0 0
4:15 pm 16:15 Sunny 64 18 27 -2.6 25 25 N 6 9 30.03 1017 10 16.0934 0 0
4:35 pm 16:35 Sunny 65 18.4 28 -2.5 24 24 NNW 8 13 30 1016 10 16.0934 0 0
4:55 pm 16:55 Sunny 65 18.2 27 -2.9 24 24 WNW 7 11 30 1016 10 16.0934 0 0
5:15 pm 17:15 Sunny 65 18.1 26 -3.3 23 23 WSW 6 9 30 1016 10 16.0934 0 0
5:35 pm 17:35 Sunny 65 18.1 27 -2.8 24 24 W 5 7 30 1016 10 16.0934 0 0
5:55 pm 17:55 Sunny 65 18.5 27 -2.9 23 23 W 5 7 30 1016 10 16.0934 0 0
6:15 pm 18:15 Sunny 64 18 26 -3.2 24 24 Calm 30 1016 10 16.0934 0 0
6:35 pm 18:35 Sunny 65 18.1 27 -3 24 24 WSW 5 7 30 1016 10 16.0934 0 0
6:55 pm 18:55 Sunny 64 17.9 28 -2.4 25 25 WSW 5 7 30 1016 10 16.0934 0 0
7:15 pm 19:15 Sunny 64 17.5 28 -2.5 26 26 W 3 6 30 1016 10 16.0934 0 0
7:35 pm 19:35 Sunny 62 16.7 28 -2.3 27 27 Calm 29.97 1015 10 16.0934 0 0
7:55 pm 19:55 Sunny 60 15.8 27 -2.9 28 28 SSW 5 7 30 1016 10 16.0934 0 0
8:15 pm 20:15 Clear 60 15.4 27 -3 28 28 Calm 30 1016 10 16.0934 0 0
8:35 pm 20:35 Clear 55 13 26 -3.2 33 33 S 5 7 30 1016 10 16.0934 0 0
8:55 pm 20:55 Clear 53 11.9 26 -3.5 34 34 S 6 9 30.03 1017 10 16.0934 0 0
9:15 pm 21:15 Clear 52 11.3 26 -3.2 36 36 S 7 11 30.03 1017 10 16.0934 0 0
9:35 pm 21:35 Clear 49 9.4 26 -3.6 40 40 S 7 11 30.06 1018 10 16.0934 0 0
9:55 pm 21:55 Clear 50 9.8 26 -3.2 40 40 S 8 13 30.03 1017 10 16.0934 0 0
10:15 pm 22:15 Clear 48 9.1 27 -2.7 44 44 S 8 13 30.06 1018 10 16.0934 0 0
10:35 pm 22:35 Clear 49 9.7 27 -2.6 42 42 S 8 13 30.03 1017 10 16.0934 0 0
10:55 pm 22:55 Clear 49 9.2 28 -2.3 45 45 S 8 13 30.06 1018 10 16.0934 0 0
11:15 pm 23:15 Clear 50 9.9 29 -1.8 44 44 S 9 15 30.03 1017 10 16.0934 0 0
11:35 pm 23:35 Clear 49 9.5 29 -1.6 46 46 S 12 19 30 1016 10 16.0934 0 0
11:55 pm 23:55 Clear 49 9.4 30 -1.2 48 48 S 12 19 30 1016 10 16.0934 0 0

Powered by AerisWeather